STARLINK-32861, 62870

Orbit data source: Space-Track

STARLINK-32861, 62870 is a payload satellite owned by SpaceX/Seattle (US) in LEO that was launched on Sat, 01 Feb 2025 UTC via an FALCON 9 launch vehicle from the Air Force Western Test Range (AFWTR). Payload-class satellites include a variety of spacecraft equipped with specific instruments for various scientific and technological missions. These include communications satellites like Starlink; space stations such as the ISS; scientific satellites like the Hubble; Earth observation satellites from companies like Planet Labs, Umbra, and HawkEye 360; GPS; miniature CubeSats for education and research; and military/defense satellites.

Loading next visibility...
Identifier
62870, 2025-022S
Orbit
LEO
Country
Flag of USUS
Related business
Manufacturer
SpaceX/Seattle
Mission
Operational Commercial Communications
Bus & Motor
STARLINK V2M, Unknown motor
Mass
730 kg wet, ~700 kg dry
Launch date (UTC)
2025-02-01 (1 year ago)
Launch vehicle
FALCON 9
Launch site
Air Force Western Test Range (AFWTR)
Object type
Payload
Rocket body
Debris
Shape & HBR
Box + 2 Pan, 17.7 m
Radar Cross Section
33.884 m², Large (>1 m²)

Expand to show TLE details & history
Last TLE update: 7 hours ago

TLE from 7 hours ago
0 STARLINK-32861
1 62870U 25022S   26126.91605105  .00023786  00000-0  71323-3 0  9993
2 62870  53.1615 218.5360 0001375 114.9414 245.1732 15.34384930 70822
Epoch: 2026-05-06T21:59Z
TLE epoch observation values (Epoch: 2026-05-06T21:59:06.810Z)
Latitude
-0°
Longitude
23.98794°
Altitude
464.045 km
Speed
7.635 km/s
True Right ascension
14h 34m 08s
True Declination
0° 00' 00"
Sunlit
Object was in full shadow at epoch
Visualization orbit readout
Latitude
Unknown
Longitude
Unknown
Altitude
Unknown
Speed
Unknown
Apparent Right ascension
Unknown
Apparent Declination
Unknown
Sunlit
N/A
Visualization observer readout
Local Sidereal Time
12:45:23
Azimuth
Unknown
Elevation
Unknown
Doppler factor
Unknown
Orbital elements
Apogee altitude
463.945 km
Perigee altitude
462.064 km
Semi-major axis
6,841.142 km
Eccentricity
0.00014
Inclination
53.1615°
RAAN
218.536°
Arg. of periapsis
114.9414°
True anomaly
245.1589°
Mean anomaly
245.1732°
Eccentric anomaly
245.16605°
Mean motion
3.83575 °/min
Orbital period
93.85 mins
BSTAR
0.00071323
Loading maneuver chart data...
Computing Atmospheric mass density...
Loading historical data...
Loading historical data...
Loading historical data...
Loading historical data...
Loading historical data...
Loading historical data...
Loading historical data...

Documentation

Showing up to 5 results
|